RH
24 24 23 22 21 21 33 77 100 100 100 100 96 99 97 100 100 100 100 100 100 100 100 100 100 100 100 100 100 100 100 100 100 100 87 59 50 37 49 53 58 62 68
23 22 21 20 21 21 20 20 55 100 100 100 100 99 100 100 100 100 94 100 100 100 100 100 100 100 100 100 100 100 100 100 96 86 54 41 35 48 58 69 64 69 79
25 23 22 22 22 21 22 22 21 28 53 75 85 93 95 100 100 100 100 100 100 100 100 100 100 97 100 100 100 88 95 86 76 49 44 36 49 52 68 71 69 86 81
21 22 22 22 23 22 23 22 22 21 22 24 24 24 24 25 29 34 33 29 30 32 32 38 45 62 70 68 60 58 51 64 46 40 33 43 48 61 75 74 88 87 79
22 20 20 21 21 22 21 22 22 22 22 23 24 25 25 25 25 26 26 26 27 31 35 57 52 51 62 62 45 47 45 36 39 39 40 44 68 84 79 82 92 74 73
18 21 21 20 20 20 21 22 23 23 22 23 22 23 24 23 23 25 26 25 26 31 37 33 37 44 43 42 38 35 39 37 37 41 42 78 82 85 89 100 88 82 71
14 15 15 16 17 19 20 20 21 21 23 23 23 24 24 24 24 26 27 28 32 32 33 39 39 36 30 32 32 32 34 36 37 41 51 67 80 90 94 93 80 70 71
15 15 15 15 15 15 17 18 18 19 20 20 21 22 24 25 24 25 25 24 25 28 33 32 33 30 32 34 29 30 30 31 42 48 66 76 89 100 92 78 79 74 71
16 16 16 16 16 16 17 17 17 18 18 19 20 20 21 22 22 22 22 24 30 34 38 38 30 28 24 24 27 26 37 50 59 72 83 95 98 95 81 78 78 77 70
16 14 14 15 15 16 16 15 16 16 15 16 17 19 20 20 21 21 22 25 28 30 31 26 24 25 28 26 30 40 56 70 74 94 99 100 96 84 83 78 84 76 64
24 21 20 17 18 18 18 18 19 19 19 19 20 21 21 21 20 21 21 23 24 24 25 27 26 28 31 43 49 61 72 84 90 100 100 96 80 88 82 86 76 68 86
28 24 21 20 22 22 21 21 22 21 22 23 24 23 23 24 24 23 23 24 26 26 28 28 33 34 37 61 56 76 94 91 100 96 91 86 86 83 87 78 68 83 92
28 26 26 23 21 20 22 22 22 24 25 25 27 28 28 28 27 28 30 28 28 29 32 38 40 45 63 66 85 87 99 100 95 90 93 87 87 92 78 70 82 89 85
43 40 36 34 31 28 26 24 23 23 24 26 27 26 27 29 30 29 28 31 32 37 42 45 54 78 82 84 93 100 100 95 100 94 84 88 90 77 72 84 91 83 83
56 58 52 55 49 46 37 32 29 28 30 30 28 28 28 28 29 30 31 32 36 40 49 57 77 91 95 100 100 100 100 100 94 88 86 81 74 70 82 92 86 84 84
74 78 70 71 61 59 61 52 44 42 38 38 37 34 35 37 38 40 43 48 55 61 78 88 95 99 99 100 100 100 100 93 82 81 74 70 78 86 92 92 83 88 90
78 83 86 81 78 78 78 72 64 58 52 48 47 49 54 58 61 68 70 73 84 92 90 96 97 99 100 100 100 100 95 86 74 72 84 90 89 86 89 82 86 92 96
65 74 78 81 86 87 84 84 81 83 84 75 71 70 69 72 76 82 84 98 92 94 97 100 100 100 100 100 100 99 90 76 81 91 93 88 88 90 84 88 92 93 93
56 60 66 71 78 79 84 87 89 86 88 88 87 86 81 86 91 94 97 98 100 100 100 100 100 100 100 100 100 92 78 83 89 94 92 91 97 95 90 94 93 95 93
70 68 62 60 64 76 78 78 82 86 88 90 93 91 94 97 98 96 100 100 100 100 100 100 100 100 100 100 100 83 81 87 92 96 99 99 100 95 92 92 98 96 100
90 90 86 70 61 61 67 80 85 85 90 93 93 91 96 100 100 100 100 100 100 100 100 100 100 100 100 100 100 93 84 85 94 100 100 100 99 90 92 99 100 100 95
90 91 92 87 82 74 72 75 81 90 92 94 90 88 93 99 99 97 99 100 100 100 100 100 97 100 100 100 100 97 84 87 91 94 98 97 91 93 99 100 100 92 94
79 81 89 95 93 89 85 83 84 89 92 93 93 94 96 100 98 96 99 100 100 100 99 98 100 100 100 100 100 90 86 84 86 92 92 92 92 96 97 100 93 94 96
82 77 76 76 78 83 89 90 89 87 85 90 92 94 97 100 100 98 95 94 94 94 95 98 100 100 100 99 94 87 86 85 91 90 88 86 92 92 94 94 94 97 94
87 86 85 83 83 81 76 77 82 84 87 87 86 87 91 96 100 100 97 93 92 95 100 99 98 97 93 89 90 94 94 93 95 88 81 90 97 91 94 97 98 97 92
64 73 76 82 90 91 91 91 88 83 79 75 76 78 80 83 86 91 95 99 100 98 95 92 92 92 92 97 100 96 94 95 93 90 90 98 97 96 94 98 98 96 97
Wind_Speed
97 100 101 102 102 101 105 109 110 109 108 108 109 107 108 106 106 109 110 109 111 111 111 111 112 112 113 113 113 113 115 114 116 120 120 115 108 104 97 90 84 82 81
99 100 104 103 103 106 105 104 108 113 113 111 112 110 111 113 111 114 114 113 112 114 114 115 116 117 115 115 116 119 119 120 120 118 113 108 102 97 89 84 82 80 79
98 100 100 101 104 105 105 104 104 105 107 109 111 113 115 117 118 118 119 119 119 121 120 120 119 119 118 119 117 118 117 116 116 112 107 102 94 88 82 81 79 77 78
97 99 100 101 103 103 105 106 108 107 105 106 107 108 109 109 109 111 111 110 110 111 111 112 111 112 113 112 112 113 112 112 108 106 99 94 86 80 79 77 76 75 78
97 97 98 99 101 102 104 105 106 107 107 107 107 107 110 109 109 109 109 110 109 110 108 111 111 112 111 113 111 108 108 104 102 99 90 82 77 76 76 74 74 77 79
91 95 99 100 100 101 102 105 107 108 108 109 108 107 108 107 106 106 107 107 106 108 108 110 110 109 108 107 106 103 101 97 94 85 77 74 74 74 70 70 75 78 74
80 84 88 92 96 100 103 105 106 106 107 106 105 104 105 105 106 105 103 104 103 106 105 105 103 103 102 99 97 95 89 86 80 75 73 72 72 67 69 73 77 74 66
75 76 78 82 84 87 90 93 93 95 97 97 96 96 98 98 99 100 100 96 95 93 91 92 93 92 89 87 85 80 77 73 71 70 68 69 64 67 72 75 73 69 64
71 73 73 75 76 78 80 83 84 85 86 86 86 87 88 91 92 91 91 91 88 87 83 84 81 80 78 77 73 69 67 68 66 65 66 63 66 70 74 73 69 64 66
69 69 68 69 70 71 73 75 76 77 78 79 79 80 81 83 83 82 83 83 84 81 76 75 74 70 68 67 66 64 61 63 63 65 63 64 69 72 71 68 63 65 65
64 63 63 62 63 63 66 68 68 69 71 72 73 74 75 77 75 76 75 76 76 73 69 70 68 65 64 63 62 62 63 63 60 59 63 69 71 69 67 62 64 64 62
59 59 59 59 60 60 60 61 63 65 66 67 68 69 70 70 71 72 71 70 70 68 67 65 61 63 61 60 61 60 64 57 58 62 67 68 68 66 61 63 63 59 59
52 53 53 55 56 58 60 60 61 61 63 64 63 63 64 64 63 63 63 63 62 61 58 59 61 58 58 60 60 55 53 56 62 64 65 65 65 60 62 62 58 57 56
43 44 46 46 47 49 53 54 54 55 55 55 55 54 54 55 55 56 56 55 56 56 56 56 56 56 59 52 51 52 56 62 60 63 64 62 59 60 60 56 55 54 54
40 41 41 42 42 42 44 45 47 47 49 49 49 49 49 49 50 51 52 52 52 54 54 56 56 51 48 51 54 57 57 58 62 62 59 59 60 58 54 52 53 53 56
39 39 40 40 40 40 40 41 42 44 44 45 46 47 46 46 46 47 48 47 48 47 47 46 47 49 52 52 52 54 56 59 59 57 59 57 54 52 50 51 51 54 58
43 41 40 41 41 40 40 40 40 41 40 41 44 46 46 46 44 44 44 45 45 46 47 49 51 51 49 51 52 54 56 55 56 55 52 50 49 49 49 49 52 56 60
45 45 44 43 42 42 41 40 40 40 39 39 40 41 42 44 46 47 48 49 50 52 51 48 46 48 52 51 51 51 52 54 52 49 47 46 48 48 48 51 54 57 62
45 47 49 49 48 47 46 44 44 45 42 43 43 43 42 41 40 42 43 43 42 44 44 47 50 49 47 49 47 48 50 49 48 47 47 48 49 50 51 54 56 60 65
44 45 46 48 51 52 51 50 50 50 51 50 50 49 48 48 47 47 47 47 48 48 50 49 46 47 49 46 45 45 44 44 44 45 47 48 50 52 54 57 59 64 67
43 44 45 47 47 48 50 53 53 53 53 53 53 51 52 53 53 53 54 54 53 50 48 48 49 49 47 47 47 46 47 45 43 45 47 49 52 54 56 59 62 66 69
45 44 44 45 45 47 48 49 51 52 53 53 53 52 50 49 49 49 49 50 50 50 52 53 52 50 49 49 49 50 49 48 47 49 50 53 55 57 59 62 65 68 71
46 46 46 46 46 46 47 49 50 51 52 53 53 52 50 52 52 52 53 54 55 56 57 57 56 54 53 52 53 52 52 51 51 52 54 57 58 60 61 64 66 70 73
45 44 44 45 47 49 49 49 50 50 51 52 53 53 54 56 58 59 59 60 60 60 60 60 57 56 56 57 56 55 55 55 55 56 58 59 61 62 63 66 68 72 74
51 51 49 47 46 45 45 47 49 51 52 52 53 53 54 56 58 60 60 60 59 59 58 57 56 57 57 57 58 59 58 58 60 61 60 61 64 65 66 68 70 73 75
54 55 55 54 53 52 50 49 48 47 47 48 49 50 52 52 53 55 57 57 56 56 55 55 55 56 58 59 60 61 61 63 64 64 63 65 66 67 68 70 72 74 76
Wind_Direction
239 240 241 242 242 243 243 243 244 246 249 253 254 256 257 259 259 262 265 269 271 274 276 279 281 283 285 287 289 290 293 294 295 297 300 302 302 304 306 306 305 306 308
240 240 241 243 244 244 245 246 246 247 250 251 254 257 259 261 263 263 267 270 272 273 276 278 280 282 284 286 287 287 291 293 295 297 299 300 301 304 304 303 304 306 306
240 242 243 244 245 246 247 249 249 249 251 253 255 257 258 260 261 263 266 269 271 272 275 276 278 280 282 283 286 287 290 291 294 296 296 299 301 301 301 303 304 304 306
242 243 244 245 246 247 249 249 251 252 253 254 255 257 259 261 263 264 265 268 270 272 275 276 278 279 280 283 284 286 289 291 292 294 297 299 298 299 300 301 303 303 306
244 246 247 247 249 249 250 251 253 254 254 256 257 259 261 262 264 266 267 268 270 271 274 274 276 278 280 281 285 286 286 289 292 293 297 296 298 298 299 301 301 303 308
245 246 247 249 250 249 250 251 252 254 255 256 257 259 261 262 264 265 266 268 270 272 273 273 275 277 279 280 282 284 286 289 291 295 293 295 295 296 299 299 301 306 308
250 249 249 249 250 251 252 252 254 254 255 256 258 259 260 261 262 264 265 267 268 269 271 272 274 274 277 280 282 285 286 289 291 290 292 293 294 295 296 298 302 306 305
254 254 254 254 254 254 255 255 256 256 257 257 258 258 259 259 260 259 261 262 265 267 269 271 273 276 280 282 283 284 287 288 288 289 290 292 293 292 295 301 304 304 305
256 256 255 255 255 255 256 256 257 257 257 257 258 257 258 258 259 259 259 261 264 267 270 273 276 277 280 281 282 284 284 285 287 287 289 290 290 293 300 302 303 303 305
258 258 256 254 254 254 255 256 256 257 257 257 257 257 257 259 260 261 260 261 263 266 270 272 274 278 278 279 281 283 283 284 286 289 288 290 292 298 300 301 301 303 304
258 258 258 257 255 254 254 253 254 256 256 256 256 256 257 258 260 261 261 262 263 267 268 271 273 275 276 277 279 280 281 284 286 285 289 291 296 298 299 299 302 303 303
256 257 257 255 254 253 252 251 251 252 253 254 255 256 257 258 259 261 262 263 265 267 268 269 271 273 275 274 278 281 283 282 285 287 290 293 296 297 297 299 302 302 304
257 259 260 259 258 257 255 254 253 253 254 254 255 256 257 259 260 261 262 264 265 267 267 266 268 271 272 276 278 277 278 281 285 289 291 294 295 295 297 300 300 303 304
255 259 257 259 260 260 260 260 260 259 260 261 261 260 260 260 261 262 263 263 262 261 263 264 266 267 273 273 273 277 279 284 287 290 292 293 293 296 298 298 302 303 304
252 256 256 257 258 258 259 257 259 260 260 261 261 260 259 259 258 257 257 258 259 260 261 262 264 267 270 273 276 279 283 285 287 289 291 293 294 294 297 300 302 303 305
247 250 251 252 254 254 255 256 255 255 255 256 258 259 257 257 257 256 257 257 258 258 258 258 262 267 272 275 277 281 284 285 289 291 292 293 293 296 299 300 300 303 306
247 247 249 249 250 250 252 253 253 255 255 254 254 254 255 256 255 254 254 255 256 256 258 260 266 269 270 276 281 282 285 288 291 292 291 292 294 297 297 298 302 305 307
249 248 248 249 249 249 252 252 251 255 256 256 255 255 254 254 254 253 254 255 257 258 263 265 267 271 275 277 280 282 286 290 291 290 290 292 295 295 296 299 301 305 307
254 253 251 250 250 249 248 250 249 252 251 252 253 254 256 256 256 256 257 258 259 260 261 267 271 272 272 278 278 283 287 289 289 288 290 293 294 294 297 299 303 306 310
257 255 255 254 252 251 252 252 252 252 252 254 255 256 255 256 256 257 258 259 260 262 266 267 267 270 275 273 277 284 287 289 291 291 292 292 292 295 298 301 304 307 310
259 259 258 258 256 255 253 252 255 256 255 255 257 258 258 259 259 260 260 261 262 261 261 265 268 273 269 270 275 280 285 288 293 294 294 293 293 296 299 303 305 307 310
259 259 259 259 258 257 256 254 254 255 255 257 258 258 258 256 255 255 257 257 260 260 261 268 271 270 264 268 274 278 285 288 290 291 293 294 295 297 299 302 305 308 311
259 259 258 259 259 258 257 257 256 254 255 255 257 257 256 254 254 255 257 259 261 262 264 267 270 267 262 267 272 277 283 286 289 291 292 293 295 297 299 302 306 308 311
264 264 263 261 260 260 260 259 259 258 257 256 257 256 256 255 257 259 259 261 263 265 267 267 265 262 261 266 272 278 282 286 289 290 291 295 296 298 300 303 306 308 312
263 264 264 263 263 264 264 263 262 262 260 260 259 258 258 258 259 261 262 264 265 266 265 263 260 260 263 268 273 278 283 285 288 290 293 295 297 298 301 304 306 309 313
264 264 264 264 264 264 264 264 264 264 263 263 262 261 261 260 260 261 262 264 265 265 264 263 262 264 267 270 275 279 282 285 287 290 293 294 296 298 301 304 306 310 311